Burnsville, North Carolina, United States (28714)
Lat: 35.92N, Lon: 82.3W
Wx Zone: NCZ049
Local Info
Past Weather Observations for Thursday, July 21, 2016

NOTE: This archive is for the closest National Weather Service station to Burnsville. Information may differ from the station used for current weather conditions.

Click here for Long-term Archive

Time Weather Temperature Dewpoint Humidity Pressure Winds Precip Visibility
23:54
Clear
70°F / 21°C 64°F / 18°C 83% 30.21 in
(1023 mb)
SE 4.6 mph
(SE 7 kph)
- 10SM
22:54
Clear
70°F / 21°C 66°F / 19°C 88% 30.21 in
(1023 mb)
SSE 4.6 mph
(SSE 7 kph)
- 10SM
21:54
Clear
73°F / 23°C 68°F / 20°C 83% 30.21 in
(1023 mb)
E 3.5 mph
(E 6 kph)
- 10SM
20:54
Clear
75°F / 24°C 68°F / 20°C 78% 30.21 in
(1023 mb)
Calm - 10SM
20:41
Partly Cloudy
75°F / 24°C 68°F / 20°C 78% 30.21 in
(1023 mb)
SE 4.6 mph
(SE 7 kph)
- 10SM
20:03
Partly Cloudy
Thunder Storms
77°F / 25°C 66°F / 19°C 69% 30.21 in
(1023 mb)
SE 5.8 mph
(SE 9 kph)
- 10SM
19:54
Partly Cloudy
77°F / 25°C 66°F / 19°C 69% 30.18 in
(1022 mb)
Calm - 10SM
18:54
Mostly Cloudy
81°F / 27°C 68°F / 20°C 66% 30.18 in
(1022 mb)
SE 5.8 mph
(SE 9 kph)
- 10SM
17:54
Clear
81°F / 27°C 66°F / 19°C 62% 30.18 in
(1022 mb)
Variable 3.5 mph
(Variable 6 kph)
- 10SM
16:54
Clear
81°F / 27°C 66°F / 19°C 62% 30.18 in
(1022 mb)
S 4.6 mph
(S 7 kph)
- 10SM
15:54
Clear
75°F / 24°C 64°F / 18°C 69% 30.21 in
(1023 mb)
Variable 3.5 mph
(Variable 6 kph)
- 10SM
15:39
Partly Cloudy
73°F / 23°C 64°F / 18°C 74% 30.21 in
(1023 mb)
ESE 5.8 mph
(ESE 9 kph)
- 10SM
14:54
Clear
Thunder Storms
79°F / 26°C 64°F / 18°C 61% 30.21 in
(1023 mb)
SSE 8.1 mph
(SSE 13 kph)
0.01 in
(0.25 mm)
10SM
14:46
Partly Cloudy
Thunder Storms
77°F / 25°C 64°F / 18°C 65% 30.21 in
(1023 mb)
S 9.2 mph
(S 15 kph)
0.01 in
(0.25 mm)
10SM
14:32
Mostly Cloudy
Light Rain
75°F / 24°C 66°F / 19°C 74% 30.21 in
(1023 mb)
SSE 9.2 mph
(SSE 15 kph)
0.01 in
(0.25 mm)
10SM
13:54
Mostly Cloudy
Thunder Storms
81°F / 27°C 64°F / 18°C 58% 30.21 in
(1023 mb)
SW 12.7 mph
(SW 20 kph)
- 10SM
13:17
Mostly Cloudy
Thunder Storms
88°F / 31°C 66°F / 19°C 49% 30.21 in
(1023 mb)
Variable 4.6 mph
(Variable 7 kph)
- 10SM
12:54
Mostly Cloudy
84°F / 29°C 66°F / 19°C 55% 30.24 in
(1024 mb)
Variable 5.8 mph
(Variable 9 kph)
- 10SM
12:49
Mostly Cloudy
84°F / 29°C 66°F / 19°C 55% 30.24 in
(1024 mb)
Variable 5.8 mph
(Variable 9 kph)
- 10SM
12:32
Clear
Thunder Storms
88°F / 31°C 66°F / 19°C 49% 30.24 in
(1024 mb)
Variable 3.5 mph
(Variable 6 kph)
- 10SM
11:54
Clear
84°F / 29°C 66°F / 19°C 55% 30.24 in
(1024 mb)
SE 5.8 mph
(SE 9 kph)
- 10SM
10:54
Clear
81°F / 27°C 66°F / 19°C 62% 30.27 in
(1025 mb)
Variable 3.5 mph
(Variable 6 kph)
- 10SM
09:54
Partly Cloudy
79°F / 26°C 66°F / 19°C 65% 30.27 in
(1025 mb)
SW 3.5 mph
(SW 6 kph)
- 10SM
08:54
Mostly Cloudy
73°F / 23°C 66°F / 19°C 78% 30.27 in
(1025 mb)
SE 5.8 mph
(SE 9 kph)
- 10SM
07:54
Overcast
70°F / 21°C 64°F / 18°C 83% 30.27 in
(1025 mb)
S 3.5 mph
(S 6 kph)
- 10SM
06:54
Overcast
68°F / 20°C 64°F / 18°C 88% 30.27 in
(1025 mb)
Calm - 10SM
05:54
Mostly Cloudy
66°F / 19°C 64°F / 18°C 94% 30.27 in
(1025 mb)
Calm - 10SM
04:54
Clear
66°F / 19°C 64°F / 18°C 94% 30.24 in
(1024 mb)
Calm - 10SM
03:54
Partly Cloudy
66°F / 19°C 64°F / 18°C 94% 30.24 in
(1024 mb)
Calm - 10SM
02:54
Mostly Cloudy
68°F / 20°C 64°F / 18°C 88% 30.24 in
(1024 mb)
Calm - 10SM
01:54
Clear
68°F / 20°C 64°F / 18°C 88% 30.24 in
(1024 mb)
S 3.5 mph
(S 6 kph)
- 10SM
00:54
Clear
70°F / 21°C 64°F / 18°C 83% 30.27 in
(1025 mb)
SSE 3.5 mph
(SSE 6 kph)
- 10SM
Time Weather Temperature Dewpoint Humidity Pressure Winds Precip Visibility


Weather for websites

WeatherForYou.com, LLC is not responsible for any damages or problems caused by this service. Current weather conditions are obtained from the closest station including government and personal stations which may have varying degrees of accuracy. Weather forecasts are derived from the NOAA NDFD. Like all things, this site belongs to Jesus Christ... He just trusts us to maintain it. If you have any questions or comments email webmaster@weatherforyou.com

Copyright © 2016, WeatherForYou.com LLC. All rights reserved.